Location: downtown San Diego
(32.7310°N, 117.1990°W)
Time: 18:00:48
(UTC-07:00)

ARGOS - Pass Details

Date: 14 June 2018
Orbit: 821 x 834 km, 98.6° (Epoch: 18 June)

Event Time Altitude Azimuth Distance (km) Brightness Sun altitude
Exits shadow 21:25:47 24° 148° (SSE) 1,677 4.2 -15.9°
Maximum altitude 21:29:04 62° 74° (ENE) 933 3.2 -16.4°
Drops below altitude 10° 21:34:25 10° 355° (N) 2,449 6.3 -17.2°
Sets 21:36:48 0° 352° (N) 3,386 7.2 -17.6°
